This is the latest recevied weather packets stored in our database for station/object G4MDP-13. If no packets are shown the sender has not sent any weather packets the latest 10 day(s).
| Time | Temp. | Humidity | Pressure | Rain* | Wind** | Luminosity | Snow |
|---|---|---|---|---|---|---|---|
| 1777369146 | 13.89° C | 64% | 1017.4 hPa | 0 mm | - | - | - |
| 1777368425 | 13.33° C | 68% | 1017.4 hPa | 0 mm | - | - | - |
| 1777368246 | 12.78° C | 70% | 1017.3 hPa | 0 mm | - | - | - |
| 1777368245 | 12.78° C | 70% | 1017.3 hPa | 0 mm | - | - | - |
| 1777367346 | 12.78° C | 69% | 1017.5 hPa | 0 mm | - | - | - |
| 1777366625 | 12.78° C | 68% | 1017.3 hPa | 0 mm | - | - | - |
| 1777366446 | 12.78° C | 69% | 1017.4 hPa | 0 mm | - | - | - |
| 1777366445 | 12.78° C | 69% | 1017.4 hPa | 0 mm | - | - | - |
| 1777365548 | 12.22° C | 68% | 1017.2 hPa | 0 mm | - | - | - |
| 1777365546 | 12.22° C | 68% | 1017.2 hPa | 0 mm | - | - | - |
| 1777364825 | 12.22° C | 71% | 1022.8 hPa | 0 mm | - | - | - |
| 1777364646 | 11.67° C | 72% | 1017 hPa | 0 mm | - | - | - |
| 1777364645 | 11.67° C | 72% | 1017 hPa | 0 mm | - | - | - |
| 1777363746 | 11.11° C | 76% | 1017.3 hPa | 0 mm | - | - | - |
| 1777363025 | 10.56° C | 77% | 1016.9 hPa | 0 mm | - | - | - |
| 1777362846 | 10.56° C | 77% | 1017 hPa | 0 mm | - | - | - |
| 1777362845 | 10.56° C | 77% | 1017 hPa | 0 mm | - | - | - |
| 1777361946 | 10° C | 77% | 1016.8 hPa | 0 mm | - | - | - |
| 1777361225 | 10° C | 77% | 1016.9 hPa | 0 mm | - | - | - |
| 1777361046 | 10° C | 77% | 1016.8 hPa | 0 mm | - | - | - |
| 1777361045 | 10° C | 77% | 1016.8 hPa | 0 mm | - | - | - |
| 1777360145 | 10° C | 77% | 1017 hPa | 0 mm | - | - | - |
| 1777359425 | 10° C | 77% | 1016.7 hPa | 0 mm | - | - | - |
| 1777359246 | 10° C | 77% | 1016.8 hPa | 0 mm | - | - | - |
| 1777359245 | 10° C | 77% | 1016.8 hPa | 0 mm | - | - | - |
* Rain latest hour (hover to see other rain measurements)
** Current wind speed in m/s (hover to see current wind gust speed)